This is the latest recevied weather packets stored in our database for station/object G8SIB-9. If no packets are shown the sender has not sent any weather packets the latest 10 day(s).
| Time | Temp. | Humidity | Pressure | Rain* | Wind** | Luminosity | Snow |
|---|---|---|---|---|---|---|---|
| 1777725599 | 23.89° C | 35% | 1012.6 hPa | 0 mm | - | - | - |
| 1777724998 | 23.33° C | 36% | 1012.6 hPa | 0 mm | - | - | - |
| 1777724397 | 22.78° C | 36% | 1012.9 hPa | 0 mm | - | - | - |
| 1777723797 | 23.33° C | 34% | 1012.9 hPa | 0 mm | - | - | - |
| 1777723197 | 23.89° C | 35% | 1013.1 hPa | 0 mm | - | - | - |
| 1777722596 | 23.33° C | 35% | 1013.3 hPa | 0 mm | - | - | - |
| 1777721995 | 22.78° C | 37% | 1013.3 hPa | 0 mm | - | - | - |
| 1777721395 | 23.33° C | 36% | 1013.3 hPa | 0 mm | - | - | - |
| 1777720794 | 23.33° C | 39% | 1013.5 hPa | 0 mm | - | - | - |
| 1777720193 | 22.78° C | 40% | 1013.6 hPa | 0 mm | - | - | - |
| 1777719592 | 22.22° C | 42% | 1013.8 hPa | 0 mm | - | - | - |
| 1777718992 | 22.22° C | 42% | 1013.8 hPa | 0 mm | - | - | - |
| 1777718391 | 21.67° C | 43% | 1013.9 hPa | 0 mm | - | - | - |
| 1777717791 | 23.33° C | 43% | 1013.8 hPa | 0 mm | - | - | - |
| 1777717190 | 22.78° C | 42% | 1013.9 hPa | 0 mm | - | - | - |
| 1777716590 | 22.78° C | 42% | 1014 hPa | 0 mm | - | - | - |
| 1777715989 | 21.67° C | 45% | 1014 hPa | 0 mm | - | - | - |
| 1777715389 | 20.56° C | 51% | 1014.1 hPa | 0 mm | - | - | - |
| 1777714788 | 20.56° C | 51% | 1014.3 hPa | 0 mm | - | - | - |
| 1777714187 | 20° C | 50% | 1014.5 hPa | 0 mm | - | - | - |
| 1777713587 | 20° C | 50% | 1014.5 hPa | 0 mm | - | - | - |
| 1777712986 | 21.11° C | 52% | 1014.6 hPa | 0 mm | - | - | - |
| 1777712386 | 20° C | 54% | 1014.6 hPa | 0 mm | - | - | - |
| 1777711785 | 19.44° C | 57% | 1014.7 hPa | 0 mm | - | - | - |
| 1777711185 | 19.44° C | 57% | 1014.8 hPa | 0 mm | - | - | - |
* Rain latest hour (hover to see other rain measurements)
** Current wind speed in m/s (hover to see current wind gust speed)